Theta_e
311 311 312 312 311 309 311 311 303 315 316 299 302 297 302 302 304 306 302 301 299 297 298 296 295 296 303 310 309 304 303 297 294 297 306 308 303 298 297 293 292 296 299 301
311 311 311 312 311 310 308 305 308 315 312 294 296 301 302 303 302 301 301 299 300 300 296 293 297 299 306 310 308 305 306 297 292 295 302 304 302 302 300 302 302 297 295 305
311 311 311 312 311 310 309 306 301 307 308 304 299 299 299 299 304 302 302 300 300 297 295 297 295 297 304 310 308 312 311 300 296 292 298 301 299 302 303 299 297 297 299 304
311 311 311 312 311 310 309 306 304 306 297 300 301 301 300 297 297 302 302 298 297 295 292 294 295 301 304 307 309 306 303 296 302 302 305 306 303 303 302 300 301 299 307 305
311 311 311 312 311 310 307 302 302 304 301 302 300 298 298 298 300 299 298 297 301 299 295 296 294 300 301 299 304 302 302 298 303 300 305 305 304 304 303 303 304 305 316 309
310 311 312 312 311 309 308 311 312 306 300 300 297 297 299 299 300 301 303 302 300 298 299 304 304 306 305 303 300 299 298 302 300 296 305 305 300 304 303 303 306 314 307 313
310 311 312 312 311 310 308 309 310 303 296 299 298 300 299 298 300 298 302 303 300 304 308 307 305 303 304 304 303 303 297 298 302 297 303 292 304 311 310 308 316 314 314 314
310 311 313 312 312 311 307 309 309 304 297 299 299 299 299 300 302 301 302 305 308 309 304 297 295 296 300 301 303 302 303 302 299 298 298 304 307 309 311 312 311 316 315 320
308 311 313 313 311 311 308 309 315 308 298 296 301 298 299 297 297 299 302 307 311 311 301 297 292 290 297 297 303 307 305 311 304 301 294 295 306 312 319 316 305 321 322 320
309 310 312 315 312 312 310 312 316 307 299 301 302 298 298 301 299 297 300 304 305 308 298 295 294 294 300 295 300 301 303 304 300 297 297 304 311 314 316 302 306 317 322 322
308 310 312 314 312 312 311 310 315 308 301 300 303 304 300 301 301 296 301 300 303 303 296 296 297 295 300 302 304 303 301 298 297 300 297 295 314 315 310 317 317 316 324 323
308 310 311 314 313 312 313 307 314 313 302 301 306 306 307 307 306 302 302 302 302 304 301 302 302 299 302 298 294 309 298 303 301 309 305 310 316 317 322 319 323 325 323 321
308 310 312 313 314 313 312 308 311 307 301 301 302 304 310 312 310 312 301 304 307 308 310 305 303 299 301 294 297 302 305 306 307 309 308 310 313 317 319 327 326 324 323 322
307 310 311 313 314 314 314 308 310 308 303 296 300 311 311 316 315 314 313 309 311 312 310 306 303 298 304 301 304 300 303 306 305 314 311 313 314 318 327 326 325 324 323 323
308 310 312 314 314 313 313 311 311 312 301 294 296 303 308 313 313 313 314 313 312 309 306 304 301 304 303 306 306 302 307 305 302 308 320 318 320 326 327 323 322 322 321 320
307 310 312 313 313 312 310 303 312 310 309 299 296 307 307 314 317 315 314 314 313 310 307 305 307 309 304 300 299 307 311 313 313 311 313 325 324 326 326 322 322 322 321 320
307 309 311 312 312 312 304 302 308 310 310 302 298 300 312 314 314 314 314 315 312 311 309 306 308 309 308 305 299 307 312 315 314 318 317 320 322 321 323 322 321 321 320 319
307 309 311 311 312 309 305 309 310 311 305 304 297 299 307 314 309 306 313 310 311 310 308 309 307 309 308 302 310 314 316 315 316 318 321 324 323 321 320 320 320 318 318 318
307 309 311 311 307 304 305 314 313 311 306 298 300 297 298 313 310 310 309 311 304 311 305 307 305 305 302 309 309 312 316 314 315 319 323 321 318 318 318 317 318 317 317 318
308 309 303 298 306 315 314 309 304 303 303 302 298 302 297 308 304 304 306 308 304 301 306 309 303 302 309 312 315 315 316 320 318 320 316 316 316 316 317 316 318 318 318 317
307 302 301 311 313 308 304 299 298 301 299 303 303 302 299 310 302 301 306 304 305 300 303 303 301 301 307 313 313 316 318 317 317 322 320 319 318 316 317 318 318 318 318 317
303 302 305 310 304 301 296 295 299 298 296 304 304 304 306 308 310 304 306 302 304 297 309 302 300 307 311 312 314 317 319 317 322 321 320 319 319 318 318 318 317 318 319 319
306 303 300 300 299 289 290 289 294 297 303 306 304 303 306 311 312 306 305 300 300 308 302 301 303 310 311 313 315 316 321 318 321 320 320 320 319 320 319 318 319 319 318 319
298 294 288 293 292 294 295 296 299 304 306 305 305 303 304 309 305 305 300 303 304 299 298 301 309 311 312 315 319 320 318 318 319 319 319 319 318 319 320 319 319 318 317 318
295 293 288 292 298 300 303 304 304 306 307 306 304 303 305 304 302 303 302 300 297 299 299 307 311 309 311 313 318 320 321 319 319 319 319 318 318 317 317 318 318 318 317 316
296 294 291 296 296 298 301 302 302 307 305 307 305 300 300 300 301 298 298 297 296 302 306 310 314 315 315 322 322 322 322 322 320 320 319 317 316 315 316 317 318 317 316 315
294 293 297 296 297 297 301 304 304 309 304 298 300 297 298 304 299 298 302 302 305 309 309 312 315 316 319 324 324 322 323 323 320 319 317 317 318 318 316 315 315 316 316 316
Wind_Speed
16 17 18 19 18 24 8 4 3 1 4 2 3 4 6 12 14 12 8 8 14 14 16 19 19 22 13 23 22 24 16 8 14 25 26 15 13 11 10 7 9 4 6 2
16 17 17 17 16 14 6 5 4 1 1 2 4 9 11 14 12 12 14 11 14 16 18 17 19 22 21 15 24 16 23 14 12 13 9 12 19 10 8 6 4 7 6 4
15 16 17 17 14 12 4 4 4 2 2 4 4 6 8 11 13 14 14 15 15 17 16 19 19 24 24 11 19 40 20 13 15 17 9 6 8 12 10 8 4 4 6 8
15 16 16 16 13 11 3 4 2 4 4 6 8 6 10 13 12 14 10 10 13 14 15 17 19 8 14 12 20 19 11 14 10 16 18 8 9 15 14 8 9 7 16 19
15 15 16 15 11 10 3 3 4 5 8 7 8 6 7 13 13 12 12 12 14 15 15 9 20 6 5 8 21 23 18 9 8 10 9 14 12 15 17 14 9 7 22 19
15 15 14 15 9 1 4 3 4 2 5 6 5 6 9 15 17 13 16 21 6 12 14 7 4 7 4 10 20 28 15 9 7 5 2 6 7 9 18 13 13 15 10 17
16 16 17 12 10 9 5 3 4 3 5 7 6 12 15 14 15 20 21 17 15 11 12 10 6 9 11 16 24 21 19 18 4 5 3 5 7 13 13 10 8 21 23 19
16 17 16 11 8 8 4 5 3 3 5 7 12 12 13 15 16 17 18 19 17 11 7 4 6 4 5 16 23 26 17 7 6 7 5 5 14 17 4 22 9 19 24 19
16 16 16 11 5 6 3 6 2 2 3 6 7 12 12 9 7 10 11 23 15 10 4 4 2 2 6 10 6 14 13 11 3 4 4 12 11 10 15 18 7 10 22 22
15 16 16 14 5 6 4 3 1 1 3 8 9 5 5 5 7 7 12 11 11 13 4 5 2 4 4 9 7 4 3 3 4 2 2 3 7 4 9 8 14 16 15 16
15 16 16 13 7 6 4 3 2 2 3 9 11 14 14 8 6 6 5 10 3 7 4 3 2 4 6 9 8 4 5 4 2 2 3 4 6 8 3 2 11 21 17 18
14 15 15 13 7 7 6 3 2 3 3 7 13 17 19 20 22 13 7 7 8 6 5 6 3 6 2 7 7 14 2 5 3 3 5 11 6 11 9 10 23 18 21 19
13 14 13 12 8 10 9 4 1 1 3 8 9 10 13 16 19 16 6 6 8 5 3 6 4 4 3 0 4 10 16 16 1 6 6 7 15 10 4 11 22 21 21 22
13 14 14 12 9 9 12 4 3 2 3 5 6 9 12 8 12 16 19 16 14 6 1 5 3 2 2 2 3 5 6 12 10 4 8 6 12 8 16 19 22 22 19 21
13 14 16 10 8 5 4 7 5 5 3 4 9 19 22 12 11 15 13 14 12 6 4 4 6 3 2 2 2 5 4 2 4 4 6 4 7 17 22 23 22 21 23 19
13 14 15 7 8 6 3 4 3 8 5 4 5 8 11 4 5 9 12 8 7 5 4 4 2 3 5 5 7 8 5 5 8 11 15 4 16 16 17 19 18 19 21 20
13 14 12 7 7 4 4 3 1 3 1 4 5 6 2 3 3 2 2 6 4 4 3 4 4 4 4 4 5 10 10 5 8 11 18 8 15 16 18 18 16 21 20 18
13 13 9 7 6 5 7 11 12 5 2 3 5 7 2 1 3 2 2 3 2 3 4 2 3 2 3 6 6 12 12 10 12 12 16 21 19 18 15 18 19 21 19 17
12 13 2 1 2 4 5 12 9 6 4 4 4 4 4 1 2 1 4 4 4 5 4 3 3 4 7 9 1 3 9 11 8 14 14 20 21 20 19 18 17 20 18 16
12 3 2 3 5 5 4 2 3 3 5 5 8 6 11 2 3 4 3 4 4 4 6 4 5 5 10 4 5 8 6 16 22 20 17 20 20 19 19 18 15 15 16 16
2 3 4 1 5 1 2 3 4 5 5 7 7 13 11 6 5 5 3 4 4 4 2 3 4 5 3 2 2 3 11 11 25 9 13 18 22 20 19 18 18 16 16 16
3 4 5 3 0 3 4 4 4 6 6 5 7 8 8 4 5 5 6 4 2 6 3 3 4 4 5 1 6 5 5 13 13 14 16 17 17 15 16 16 16 15 16 15
2 3 3 4 4 4 6 6 6 5 4 3 7 10 2 3 3 2 3 4 5 3 5 4 2 7 6 6 3 1 13 11 9 15 16 16 14 13 13 15 14 14 12 16
3 3 5 5 6 7 7 9 5 3 3 6 7 8 5 4 3 2 3 4 3 4 5 1 4 4 6 2 4 7 15 22 14 16 16 15 13 11 14 14 12 12 11 13
4 3 6 8 8 6 3 5 3 3 5 4 5 7 4 3 1 2 3 3 4 4 4 3 3 12 18 15 15 10 6 9 9 12 12 11 12 15 13 13 11 12 9 8
3 6 4 8 8 8 5 6 4 3 3 1 2 6 3 3 3 5 7 3 2 2 3 3 2 9 20 2 10 11 8 9 11 12 10 13 15 14 13 12 12 11 10 8
7 6 8 8 8 8 6 3 3 0 2 2 2 7 5 3 3 4 4 3 2 2 3 4 4 6 9 8 1 6 5 7 12 13 15 15 15 15 14 12 8 9 8 8
Wind_Direction
339 339 340 339 344 339 344 296 290 134 309 335 231 242 289 328 331 321 296 303 301 294 299 296 287 289 278 292 307 308 246 196 239 255 267 213 186 205 184 194 246 205 161 295
337 337 337 337 347 4 322 300 285 163 312 297 342 347 326 330 323 329 327 310 306 305 301 297 288 285 288 304 329 307 296 217 235 276 298 207 191 205 205 178 137 185 153 189
334 334 333 335 341 347 322 287 303 144 184 223 236 310 318 328 333 314 313 308 310 306 285 288 290 289 281 325 320 309 305 233 194 226 225 170 187 206 224 167 152 192 174 148
330 330 328 328 333 338 315 264 313 14 315 335 341 320 314 304 303 293 322 303 284 295 299 305 289 314 313 307 320 319 315 201 178 224 241 301 243 199 221 203 199 161 160 151
327 320 320 320 326 329 270 297 3 354 302 299 305 295 268 310 316 330 302 289 331 334 280 285 282 337 0 312 309 317 326 269 168 221 216 250 242 213 220 224 192 142 106 127
322 319 314 311 307 306 289 315 328 324 290 289 300 294 327 315 320 298 314 315 288 305 292 317 256 152 229 248 281 293 299 310 124 231 259 350 268 250 208 224 212 143 154 161
322 323 315 303 283 212 322 312 307 298 277 290 297 313 310 312 306 299 293 294 294 259 272 295 246 254 234 256 266 259 264 276 266 144 90 257 265 296 281 91 87 104 105 135
326 323 322 316 287 214 249 284 304 311 289 312 302 294 306 313 301 299 302 293 305 288 289 288 293 306 324 272 251 255 237 234 265 128 190 20 318 285 193 111 52 120 133 135
329 324 325 325 290 194 245 272 284 291 313 251 339 335 303 303 320 312 309 323 313 286 197 212 240 89 307 302 230 209 225 207 207 116 160 189 188 334 29 98 121 149 131 140
326 324 319 317 262 211 231 284 353 254 272 267 282 263 294 288 287 284 305 329 327 317 250 268 83 248 209 250 236 178 177 218 162 66 266 48 331 306 232 164 176 185 157 147
322 321 315 312 243 219 218 278 193 211 251 279 268 274 273 273 271 263 310 323 359 285 236 234 107 284 290 320 327 285 172 132 145 81 55 282 264 11 83 318 126 153 153 142
317 318 310 312 243 228 212 264 168 108 201 268 299 274 259 254 251 265 259 267 333 285 334 351 18 248 322 348 296 332 303 154 158 91 213 162 201 127 333 294 143 143 124 128
315 320 315 307 252 230 210 261 159 152 254 271 249 268 266 226 227 228 238 234 203 245 76 299 278 282 173 148 305 328 344 9 64 80 307 172 171 164 182 183 118 124 126 129
313 314 308 294 277 259 204 229 212 223 284 270 275 266 278 265 226 215 214 236 271 289 341 272 252 284 355 253 280 271 260 318 318 69 177 177 271 240 142 115 115 118 122 127
311 314 309 272 259 250 227 248 243 193 168 291 300 300 273 263 229 237 227 221 232 237 250 231 272 100 200 250 332 258 183 65 329 218 209 142 152 134 128 123 128 130 130 126
311 312 313 263 244 226 271 279 207 193 169 257 279 312 286 260 331 223 219 222 237 215 219 253 215 194 162 212 217 209 198 245 206 251 307 166 132 128 128 126 133 134 128 129
308 308 306 267 242 213 217 259 253 26 172 265 283 273 113 21 287 273 231 193 203 188 230 237 228 206 165 250 238 241 242 251 280 236 276 127 136 136 130 126 122 118 123 130
307 309 285 263 244 270 266 252 260 159 257 252 264 265 221 304 265 320 241 170 194 230 232 240 218 181 216 247 276 296 301 345 293 277 278 144 129 123 120 127 128 128 131 134
305 310 252 264 202 231 237 244 191 164 196 273 256 280 305 9 273 100 275 196 228 201 219 218 128 217 224 216 152 278 229 274 279 293 228 131 130 128 133 135 133 132 136 141
301 244 166 231 207 234 258 260 155 178 209 224 249 265 266 205 57 304 270 193 235 222 211 115 218 249 260 245 202 241 187 188 301 214 156 138 131 140 143 144 136 134 133 134
205 204 229 312 119 251 248 240 216 207 228 205 230 214 232 188 149 212 252 295 291 258 152 222 224 255 188 214 146 96 325 317 301 195 136 135 140 149 145 146 146 144 140 141
305 284 282 253 272 213 228 217 228 216 244 241 216 223 197 209 124 176 199 227 249 257 141 255 238 224 156 266 88 95 173 268 168 135 135 141 147 148 146 141 138 136 137 152
286 221 262 207 174 223 212 210 214 226 254 334 355 337 263 141 147 178 191 233 240 195 216 237 256 112 138 100 89 206 237 250 177 134 140 144 143 140 135 131 133 135 136 138
236 219 237 231 193 222 197 243 292 302 297 347 4 301 277 24 68 342 246 236 262 271 269 347 8 51 80 225 128 182 243 249 143 142 142 145 144 125 121 125 128 127 134 138
228 232 240 226 250 281 270 262 284 326 4 36 325 288 247 114 157 188 297 257 241 254 352 48 338 18 328 288 205 237 118 136 132 142 144 138 126 120 115 118 115 113 116 117
223 222 265 259 276 279 309 323 14 42 3 317 24 273 315 167 213 205 210 247 216 24 306 264 263 185 232 248 140 150 165 156 160 149 135 122 117 117 118 111 115 118 123 124
217 215 216 252 274 264 277 318 21 129 69 2 252 252 224 286 224 227 241 52 56 214 274 266 272 304 309 317 115 160 150 136 135 129 125 122 122 123 119 118 121 121 126 126